BTI5717 ULAA-ULAM

Flight info

Callsign BTI5717
Flight time 1h 1m
Altitude 39000
Route UNARI3K UNARI M58 RIGNI L168 SORIL SORIL1P
Aircraft B736/M-SDE2E3FGHIRWXY/LB1

Departure

Time 2026-04-21 09:26
Airport Talagi Airport (ULAA)

Arrival

Time 2026-04-21 10:28
Airport Naryan Mar Airport (ULAM)
Time Latitude Longitude Altitude Speed Heading
2026-04-21 09:12 64.59676 40.71229 39 ft 0 kts 185°
2026-04-21 09:22 64.59692 40.71233 39 ft 3 kts 192°
2026-04-21 09:22 64.59710 40.71246 39 ft 3 kts 211°
2026-04-21 09:22 64.59724 40.71273 39 ft 3 kts 250°
2026-04-21 09:22 64.59726 40.71297 39 ft 0 kts 275°
2026-04-21 09:24 64.59726 40.71296 39 ft 1 kts 275°
2026-04-21 09:24 64.59735 40.71178 39 ft 12 kts 300°
2026-04-21 09:24 64.59818 40.71174 39 ft 13 kts 23°
2026-04-21 09:25 64.59881 40.71306 38 ft 13 kts
2026-04-21 09:25 64.59972 40.71330 39 ft 13 kts
2026-04-21 09:25 64.60043 40.71329 36 ft 3 kts 296°
2026-04-21 09:25 64.60042 40.71324 37 ft 0 kts 278°
2026-04-21 09:26 64.60059 40.71042 36 ft 63 kts 276°
2026-04-21 09:26 64.60153 40.69221 50 ft 158 kts 277°
2026-04-21 09:26 64.60360 40.66523 996 ft 165 kts 280°
2026-04-21 09:26 64.60869 40.64379 2537 ft 159 kts 322°
2026-04-21 09:27 64.62037 40.63689 3082 ft 188 kts
2026-04-21 09:27 64.63242 40.65006 3157 ft 203 kts 42°
2026-04-21 09:27 64.64214 40.67692 3424 ft 234 kts 51°
2026-04-21 09:27 64.65260 40.70936 3926 ft 259 kts 51°
2026-04-21 09:28 64.66345 40.74298 5025 ft 259 kts 51°
2026-04-21 09:28 64.67440 40.77659 6128 ft 261 kts 50°
2026-04-21 09:28 64.68571 40.81005 7122 ft 265 kts 50°
2026-04-21 09:28 64.69724 40.84392 8139 ft 267 kts 49°
2026-04-21 09:29 64.70899 40.87806 9082 ft 272 kts 49°
2026-04-21 09:29 64.72098 40.91253 10016 ft 275 kts 48°
2026-04-21 09:29 64.73333 40.94775 10709 ft 289 kts 48°
2026-04-21 09:29 64.74671 40.98565 11066 ft 312 kts 48°
2026-04-21 09:30 64.76074 41.02534 11819 ft 319 kts 48°
2026-04-21 09:30 64.77494 41.06549 12726 ft 321 kts 48°
2026-04-21 09:30 64.78922 41.10583 13608 ft 323 kts 48°
2026-04-21 09:30 64.80366 41.14669 14415 ft 327 kts 48°
2026-04-21 09:31 64.81818 41.18801 15238 ft 329 kts 48°
2026-04-21 09:31 64.83269 41.23008 16017 ft 333 kts 48°
2026-04-21 09:31 64.84734 41.27254 16794 ft 336 kts 48°
2026-04-21 09:31 64.86217 41.31529 17542 ft 339 kts 48°
2026-04-21 09:32 64.87722 41.35846 18270 ft 343 kts 48°
2026-04-21 09:32 64.89245 41.40203 18998 ft 346 kts 47°
2026-04-21 09:32 64.90782 41.44593 19737 ft 348 kts 47°
2026-04-21 09:32 64.92326 41.49003 20472 ft 350 kts 47°
2026-04-21 09:33 64.93882 41.53450 21156 ft 353 kts 47°
2026-04-21 09:33 64.95449 41.57934 21828 ft 356 kts 47°
2026-04-21 09:33 64.97029 41.62464 22477 ft 359 kts 47°
2026-04-21 09:33 64.98619 41.67030 23146 ft 361 kts 47°
2026-04-21 09:34 65.00217 41.71630 23780 ft 364 kts 47°
2026-04-21 09:34 65.01826 41.76272 24411 ft 366 kts 47°
2026-04-21 09:34 65.03445 41.80953 24993 ft 369 kts 47°
2026-04-21 09:34 65.05076 41.85678 25564 ft 372 kts 47°
2026-04-21 09:35 65.06696 41.90381 26146 ft 374 kts 47°
2026-04-21 09:35 65.08346 41.95183 26703 ft 377 kts 47°
2026-04-21 09:35 65.10004 42.00017 27255 ft 379 kts 47°
2026-04-21 09:35 65.11675 42.04898 27693 ft 384 kts 47°
2026-04-21 09:36 65.13369 42.09857 28091 ft 389 kts 47°
2026-04-21 09:36 65.15075 42.14865 28586 ft 390 kts 47°
2026-04-21 09:36 65.16785 42.19895 29090 ft 392 kts 47°
2026-04-21 09:36 65.18499 42.24948 29566 ft 393 kts 47°
2026-04-21 09:37 65.20224 42.30023 30018 ft 395 kts 46°
2026-04-21 09:37 65.22032 42.34961 30393 ft 397 kts 44°
2026-04-21 09:37 65.23903 42.39845 30687 ft 401 kts 44°
2026-04-21 09:37 65.25809 42.44777 30954 ft 406 kts 44°
2026-04-21 09:38 65.27725 42.49779 31255 ft 410 kts 44°
2026-04-21 09:38 65.29645 42.54843 31569 ft 413 kts 45°
2026-04-21 09:38 65.31577 42.59972 31880 ft 415 kts 45°
2026-04-21 09:38 65.33507 42.65123 32248 ft 416 kts 45°
2026-04-21 09:39 65.35434 42.70301 32589 ft 417 kts 46°
2026-04-21 09:39 65.37276 42.75704 32920 ft 420 kts 49°
2026-04-21 09:39 65.39052 42.81267 33245 ft 421 kts 50°
2026-04-21 09:39 65.40814 42.86905 33512 ft 423 kts 50°
2026-04-21 09:40 65.42582 42.92561 33853 ft 423 kts 50°
2026-04-21 09:40 65.44352 42.98197 34213 ft 422 kts 50°
2026-04-21 09:40 65.46133 43.03839 34479 ft 424 kts 50°
2026-04-21 09:40 65.47923 43.09502 34713 ft 426 kts 50°
2026-04-21 09:41 65.49720 43.15183 35010 ft 427 kts 50°
2026-04-21 09:41 65.51511 43.20876 35346 ft 426 kts 50°
2026-04-21 09:41 65.53300 43.26579 35582 ft 428 kts 50°
2026-04-21 09:41 65.55095 43.32325 35790 ft 429 kts 51°
2026-04-21 09:42 65.56888 43.38088 36057 ft 429 kts 51°
2026-04-21 09:42 65.58681 43.43863 36300 ft 430 kts 51°
2026-04-21 09:42 65.60478 43.49664 36493 ft 432 kts 51°
2026-04-21 09:42 65.62276 43.55485 36769 ft 431 kts 51°
2026-04-21 09:43 65.64060 43.61274 37103 ft 428 kts 51°
2026-04-21 09:43 65.65831 43.67038 37447 ft 425 kts 51°
2026-04-21 09:43 65.67595 43.72794 37669 ft 426 kts 51°
2026-04-21 09:43 65.69366 43.78583 37757 ft 429 kts 51°
2026-04-21 09:44 65.71148 43.84426 37891 ft 431 kts 51°
2026-04-21 09:44 65.72927 43.90275 38131 ft 430 kts 51°
2026-04-21 09:44 65.74705 43.96133 38265 ft 432 kts 51°
2026-04-21 09:44 65.76490 44.02034 38397 ft 433 kts 51°
2026-04-21 09:45 65.78272 44.07942 38583 ft 433 kts 51°
2026-04-21 09:45 65.80058 44.13873 38742 ft 435 kts 51°
2026-04-21 09:45 65.81844 44.19819 38950 ft 434 kts 51°
2026-04-21 09:45 65.83627 44.25774 39058 ft 436 kts 52°
2026-04-21 09:46 65.87134 44.37978 39066 ft 439 kts 53°
2026-04-21 09:46 65.90547 44.50296 39052 ft 436 kts 54°
2026-04-21 09:47 65.93944 44.62576 39038 ft 434 kts 54°
2026-04-21 09:47 65.97326 44.74809 39038 ft 433 kts 54°
2026-04-21 09:48 66.00692 44.87036 39038 ft 432 kts 54°
2026-04-21 09:48 66.04047 44.99292 39035 ft 432 kts 54°
2026-04-21 09:49 66.07398 45.11597 39041 ft 434 kts 54°
2026-04-21 09:49 66.10757 45.24001 39043 ft 436 kts 54°
2026-04-21 09:50 66.12985 45.32262 39044 ft 437 kts 54°
2026-04-21 09:50 66.17468 45.49015 39039 ft 441 kts 54°
2026-04-21 09:51 66.20841 45.61724 39038 ft 443 kts 54°
2026-04-21 09:51 66.24215 45.74506 39038 ft 444 kts 55°
2026-04-21 09:52 66.27588 45.87351 39038 ft 445 kts 55°
2026-04-21 09:52 66.30952 46.00247 39034 ft 445 kts 55°
2026-04-21 09:53 66.34308 46.13179 39035 ft 445 kts 55°
2026-04-21 09:53 66.37650 46.26137 39039 ft 444 kts 55°
2026-04-21 09:54 66.40976 46.39108 39031 ft 443 kts 55°
2026-04-21 09:54 66.44285 46.52090 39037 ft 442 kts 55°
2026-04-21 09:55 66.47576 46.65078 39038 ft 442 kts 56°
2026-04-21 09:55 66.50856 46.78089 39040 ft 441 kts 56°
2026-04-21 09:56 66.54118 46.91121 39037 ft 441 kts 56°
2026-04-21 09:56 66.57371 47.04189 39037 ft 441 kts 56°
2026-04-21 09:57 66.60607 47.17262 39032 ft 440 kts 56°
2026-04-21 09:57 66.63836 47.30397 38639 ft 446 kts 56°
2026-04-21 09:58 66.65467 47.37053 38121 ft 445 kts 56°
2026-04-21 09:58 66.67087 47.43689 37515 ft 443 kts 56°
2026-04-21 09:58 66.68688 47.50271 37098 ft 437 kts 56°
2026-04-21 09:58 66.70267 47.56782 36634 ft 432 kts 56°
2026-04-21 09:59 66.71827 47.63222 36195 ft 427 kts 56°
2026-04-21 09:59 66.73368 47.69604 35754 ft 423 kts 56°
2026-04-21 09:59 66.74874 47.75884 35298 ft 419 kts 57°
2026-04-21 09:59 66.76238 47.82432 34900 ft 415 kts 61°
2026-04-21 10:00 66.77472 47.89001 34453 ft 412 kts 62°
2026-04-21 10:00 66.78664 47.95561 34020 ft 408 kts 62°
2026-04-21 10:00 66.79826 48.01963 33597 ft 404 kts 62°
2026-04-21 10:00 66.81022 48.08497 33165 ft 400 kts 62°
2026-04-21 10:01 66.82197 48.14875 32735 ft 397 kts 62°
2026-04-21 10:01 66.83365 48.21190 32317 ft 394 kts 62°
2026-04-21 10:01 66.84497 48.27308 31915 ft 391 kts 62°
2026-04-21 10:01 66.85657 48.33605 31500 ft 388 kts 62°
2026-04-21 10:02 66.87912 48.45936 30705 ft 381 kts 62°
2026-04-21 10:02 66.88998 48.51927 30320 ft 378 kts 62°
2026-04-21 10:02 66.90113 48.58099 29926 ft 375 kts 62°
2026-04-21 10:03 66.91197 48.64120 29534 ft 372 kts 62°
2026-04-21 10:03 66.92271 48.70094 29134 ft 369 kts 62°
2026-04-21 10:03 66.93306 48.75869 28743 ft 366 kts 62°
2026-04-21 10:03 66.94387 48.81911 28337 ft 364 kts 63°
2026-04-21 10:04 66.95430 48.87763 27948 ft 361 kts 63°
2026-04-21 10:04 66.96464 48.93578 27556 ft 359 kts 63°
2026-04-21 10:04 66.97487 48.99354 27169 ft 356 kts 63°
2026-04-21 10:04 66.98504 49.05109 26785 ft 354 kts 63°
2026-04-21 10:05 66.99510 49.10820 26407 ft 351 kts 63°
2026-04-21 10:05 67.00507 49.16495 26027 ft 349 kts 63°
2026-04-21 10:05 67.01487 49.22088 25663 ft 346 kts 63°
2026-04-21 10:05 67.02476 49.27746 25290 ft 344 kts 63°
2026-04-21 10:06 67.03446 49.33316 24923 ft 342 kts 63°
2026-04-21 10:06 67.04409 49.38859 24555 ft 339 kts 63°
2026-04-21 10:06 67.05363 49.44363 24189 ft 337 kts 63°
2026-04-21 10:06 67.06309 49.49838 23822 ft 335 kts 63°
2026-04-21 10:07 67.07247 49.55280 23461 ft 333 kts 63°
2026-04-21 10:07 67.07863 49.58864 23222 ft 331 kts 63°
2026-04-21 10:07 67.08788 49.64255 22864 ft 329 kts 63°
2026-04-21 10:07 67.09705 49.69615 22507 ft 327 kts 64°
2026-04-21 10:08 67.10614 49.74946 22152 ft 325 kts 64°
2026-04-21 10:08 67.11516 49.80248 21799 ft 322 kts 64°
2026-04-21 10:08 67.12410 49.85509 21447 ft 320 kts 64°
2026-04-21 10:08 67.13295 49.90739 21103 ft 318 kts 64°
2026-04-21 10:09 67.14173 49.95942 20760 ft 316 kts 64°
2026-04-21 10:09 67.15044 50.01120 20413 ft 314 kts 64°
2026-04-21 10:09 67.15909 50.06268 20069 ft 312 kts 64°
2026-04-21 10:09 67.16766 50.11390 19725 ft 311 kts 64°
2026-04-21 10:10 67.17616 50.16485 19384 ft 309 kts 64°
2026-04-21 10:10 67.18461 50.21552 19043 ft 307 kts 64°
2026-04-21 10:10 67.19300 50.26603 18706 ft 306 kts 64°
2026-04-21 10:10 67.20132 50.31625 18374 ft 304 kts 64°
2026-04-21 10:11 67.20959 50.36626 18039 ft 302 kts 65°
2026-04-21 10:11 67.21779 50.41604 17709 ft 301 kts 65°
2026-04-21 10:11 67.22599 50.46592 17374 ft 302 kts 65°
2026-04-21 10:11 67.23412 50.51562 17035 ft 298 kts 65°
2026-04-21 10:12 67.24215 50.56488 16699 ft 298 kts 65°
2026-04-21 10:12 67.25019 50.61406 16373 ft 297 kts 65°
2026-04-21 10:12 67.25814 50.66298 16040 ft 294 kts 65°
2026-04-21 10:12 67.26606 50.71168 15706 ft 293 kts 65°
2026-04-21 10:13 67.27393 50.76007 15381 ft 291 kts 65°
2026-04-21 10:13 67.28175 50.80829 15054 ft 290 kts 65°
2026-04-21 10:13 67.28951 50.85641 14730 ft 289 kts 66°
2026-04-21 10:13 67.29722 50.90430 14388 ft 288 kts 66°
2026-04-21 10:14 67.30490 50.95228 14051 ft 288 kts 66°
2026-04-21 10:14 67.31266 50.99986 13721 ft 286 kts 65°
2026-04-21 10:14 67.32050 51.04732 13394 ft 286 kts 65°
2026-04-21 10:14 67.32834 51.09467 13060 ft 285 kts 65°
2026-04-21 10:15 67.33601 51.14127 12728 ft 285 kts 65°
2026-04-21 10:15 67.34376 51.18840 12396 ft 284 kts 65°
2026-04-21 10:15 67.35147 51.23544 12059 ft 283 kts 65°
2026-04-21 10:15 67.35917 51.28253 11676 ft 284 kts 66°
2026-04-21 10:16 67.36687 51.32970 11331 ft 284 kts 66°
2026-04-21 10:16 67.37453 51.37679 10996 ft 283 kts 66°
2026-04-21 10:16 67.38215 51.42376 10659 ft 281 kts 66°
2026-04-21 10:16 67.38971 51.47051 10334 ft 280 kts 66°
2026-04-21 10:17 67.39722 51.51712 10027 ft 279 kts 66°
2026-04-21 10:17 67.40459 51.56293 9862 ft 272 kts 66°
2026-04-21 10:17 67.41187 51.60832 9546 ft 271 kts 66°
2026-04-21 10:17 67.41912 51.65352 9249 ft 270 kts 66°
2026-04-21 10:18 67.42632 51.69859 8956 ft 269 kts 66°
2026-04-21 10:18 67.43347 51.74349 8664 ft 268 kts 67°
2026-04-21 10:18 67.44057 51.78820 8375 ft 267 kts 67°
2026-04-21 10:18 67.44766 51.83283 8083 ft 266 kts 67°
2026-04-21 10:19 67.45471 51.87726 7787 ft 265 kts 67°
2026-04-21 10:19 67.46170 51.92155 7501 ft 264 kts 67°
2026-04-21 10:19 67.46867 51.96573 7216 ft 263 kts 67°
2026-04-21 10:19 67.47561 52.00981 6927 ft 263 kts 67°
2026-04-21 10:20 67.48404 52.05184 6623 ft 262 kts 53°
2026-04-21 10:20 67.49515 52.08935 6342 ft 261 kts 49°
2026-04-21 10:20 67.50667 52.12595 6043 ft 261 kts 49°
2026-04-21 10:20 67.51816 52.16265 5748 ft 261 kts 50°
2026-04-21 10:21 67.52954 52.19952 5449 ft 261 kts 50°
2026-04-21 10:21 67.54084 52.23663 5150 ft 261 kts 50°
2026-04-21 10:21 67.55207 52.27376 4857 ft 260 kts 51°
2026-04-21 10:21 67.56323 52.31096 4565 ft 260 kts 51°
2026-04-21 10:22 67.57436 52.34823 4260 ft 260 kts 51°
2026-04-21 10:22 67.58557 52.38585 3810 ft 263 kts 51°
2026-04-21 10:22 67.59664 52.42299 3516 ft 255 kts 52°
2026-04-21 10:22 67.60622 52.46133 3235 ft 250 kts 70°
2026-04-21 10:23 67.61083 52.50465 3081 ft 243 kts 78°
2026-04-21 10:23 67.61515 52.54676 2851 ft 235 kts 78°
2026-04-21 10:23 67.61941 52.58720 2635 ft 227 kts 77°
2026-04-21 10:23 67.62353 52.62596 2428 ft 215 kts 77°
2026-04-21 10:24 67.62713 52.66303 2232 ft 204 kts 82°
2026-04-21 10:24 67.62895 52.69871 2052 ft 191 kts 90°
2026-04-21 10:24 67.62975 52.73229 1905 ft 183 kts 91°
2026-04-21 10:24 67.63051 52.76454 1738 ft 171 kts 90°
2026-04-21 10:25 67.63108 52.79485 1525 ft 167 kts 94°
2026-04-21 10:25 67.63039 52.82549 1374 ft 169 kts 100°
2026-04-21 10:25 67.62937 52.85583 1271 ft 166 kts 96°
2026-04-21 10:25 67.62913 52.88556 1153 ft 160 kts 93°
2026-04-21 10:26 67.62955 52.91303 1111 ft 147 kts 88°
2026-04-21 10:26 67.63091 52.93961 924 ft 146 kts 85°
2026-04-21 10:26 67.63229 52.96570 774 ft 142 kts 86°
2026-04-21 10:26 67.63355 52.99093 731 ft 141 kts 87°
2026-04-21 10:27 67.63482 53.01662 659 ft 141 kts 86°
2026-04-21 10:27 67.63618 53.04202 449 ft 138 kts 86°
2026-04-21 10:27 67.63746 53.06647 223 ft 131 kts 86°
2026-04-21 10:27 67.63865 53.09013 63 ft 129 kts 84°
2026-04-21 10:28 67.63975 53.11045 45 ft 65 kts 84°
2026-04-21 10:28 67.63985 53.11313 45 ft 0 kts 84°